| time (UTC) | temp C | wind direction | speed KPH | gust KPH | rain 1hr cm | rain 24hr cm | rain mn cm | humidity % | barometer mb |
| 20260506051029 | 10 | 168 | 1.6 | 8.0 | 0.00 | 0.69 | 0.56 | 99 | 1005.9 |
| 20260506050529 | 10 | 198 | 3.2 | 11.3 | 0.00 | 0.69 | 0.56 | 99 | 1005.9 |
| 20260506045027 | 9 | 160 | 3.2 | 12.9 | 0.00 | 0.69 | 0.56 | 99 | 1005.6 |
| 20260506044534 | 9 | 185 | 4.8 | 12.9 | 0.00 | 0.69 | 0.56 | 99 | 1005.6 |
| 20260506044028 | 9 | 196 | 1.6 | 6.4 | 0.00 | 0.69 | 0.56 | 99 | 1005.5 |
| 20260506043531 | 9 | 207 | 0.0 | 4.8 | 0.00 | 0.69 | 0.56 | 99 | 1005.4 |
| 20260506043026 | 9 | 245 | 0.0 | 6.4 | 0.00 | 0.69 | 0.56 | 99 | 1005.4 |
| 20260506042525 | 9 | 245 | 1.6 | 6.4 | 0.00 | 0.69 | 0.56 | 99 | 1005.2 |
| 20260506042024 | 9 | 236 | 3.2 | 6.4 | 0.00 | 0.69 | 0.56 | 99 | 1005.2 |
| 20260506041524 | 9 | 243 | 1.6 | 6.4 | 0.00 | 0.69 | 0.56 | 99 | 1005.2 |
| 20260506041024 | 9 | 241 | 3.2 | 6.4 | 0.00 | 0.69 | 0.56 | 99 | 1005.3 |
| 20260506040526 | 9 | 210 | 0.0 | 3.2 | 0.00 | 0.69 | 0.56 | 99 | 1005.3 |
| 20260506040029 | 9 | 210 | 0.0 | 4.8 | 0.00 | 0.69 | 0.56 | 99 | 1005.3 |
| 20260506035523 | 9 | 209 | 0.0 | 9.7 | 0.00 | 0.69 | 0.56 | 99 | 1005.1 |
| 20260506035022 | 9 | 244 | 1.6 | 9.7 | 0.00 | 0.69 | 0.56 | 99 | 1005.2 |
| 20260506034522 | 9 | 230 | 1.6 | 8.0 | 0.00 | 0.69 | 0.56 | 99 | 1005.3 |
| 20260506034021 | 9 | 252 | 3.2 | 8.0 | 0.00 | 0.69 | 0.56 | 99 | 1005.3 |
| 20260506033521 | 9 | 246 | 1.6 | 8.0 | 0.00 | 0.69 | 0.56 | 99 | 1005.2 |
| 20260506033021 | 9 | 236 | 0.0 | 8.0 | 0.00 | 0.69 | 0.56 | 99 | 1005.2 |
| 20260506032521 | 9 | 239 | 1.6 | 8.0 | 0.00 | 0.69 | 0.56 | 99 | 1005.2 |
| 20260506032020 | 9 | 234 | 1.6 | 6.4 | 0.00 | 0.69 | 0.56 | 99 | 1005.4 |
| 20260506031520 | 9 | 200 | 1.6 | 11.3 | 0.00 | 0.69 | 0.56 | 98 | 1005.3 |
| 20260506031020 | 9 | 237 | 4.8 | 11.3 | 0.00 | 0.69 | 0.56 | 99 | 1005.5 |
| 20260506030520 | 9 | 223 | 0.0 | 8.0 | 0.00 | 0.69 | 0.56 | 99 | 1005.3 |
| 20260506030021 | 9 | 202 | 1.6 | 4.8 | 0.00 | 0.69 | 0.56 | 98 | 1005.3 |
| 20260506025518 | 9 | 201 | 0.0 | 6.4 | 0.00 | 0.69 | 0.56 | 98 | 1005.4 |
| 20260506025018 | 10 | 202 | 1.6 | 6.4 | 0.00 | 0.69 | 0.56 | 98 | 1005.4 |
| 20260506024518 | 10 | 223 | 0.0 | 6.4 | 0.00 | 0.69 | 0.56 | 98 | 1005.4 |
| 20260506024017 | 10 | 223 | 1.6 | 9.7 | 0.00 | 0.69 | 0.56 | 98 | 1005.4 |
| 20260506023517 | 10 | 172 | 1.6 | 9.7 | 0.00 | 0.69 | 0.56 | 98 | 1005.4 |
| 20260506023029 | 10 | 169 | 4.8 | 9.7 | 0.00 | 0.69 | 0.56 | 98 | 1005.4 |
| 20260506022515 | 10 | 236 | 1.6 | 8.0 | 0.00 | 0.69 | 0.56 | 98 | 1005.4 |
| 20260506022021 | 10 | 191 | 1.6 | 8.0 | 0.00 | 0.69 | 0.56 | 98 | 1005.5 |
| 20260506021521 | 10 | 229 | 0.0 | 4.8 | 0.00 | 0.69 | 0.56 | 98 | 1005.6 |
| 20260506021018 | 10 | 232 | 1.6 | 4.8 | 0.00 | 0.69 | 0.56 | 98 | 1005.3 |
| 20260506020512 | 10 | 232 | 0.0 | 4.8 | 0.00 | 0.69 | 0.56 | 98 | 1005.5 |
| 20260506020014 | 10 | 190 | 0.0 | 4.8 | 0.00 | 0.69 | 0.56 | 98 | 1005.6 |
| 20260506015513 | 10 | 188 | 0.0 | 3.2 | 0.00 | 0.69 | 0.56 | 98 | 1005.5 |
| 20260506015013 | 10 | 188 | 0.0 | 4.8 | 0.00 | 0.69 | 0.56 | 98 | 1005.5 |
| 20260506014513 | 10 | 188 | 0.0 | 4.8 | 0.00 | 0.69 | 0.56 | 98 | 1005.5 |
| 20260506014013 | 10 | 184 | 0.0 | 0.0 | 0.00 | 0.69 | 0.56 | 98 | 1005.4 |
| 20260506013511 | 10 | 184 | 0.0 | 0.0 | 0.00 | 0.69 | 0.56 | 98 | 1005.5 |
| 20260506013014 | 10 | 184 | 0.0 | 0.0 | 0.00 | 0.69 | 0.56 | 98 | 1005.5 |
| 20260506012511 | 10 | 184 | 0.0 | 0.0 | 0.00 | 0.69 | 0.56 | 98 | 1005.6 |
| 20260506012012 | 10 | 184 | 0.0 | 0.0 | 0.03 | 0.69 | 0.56 | 98 | 1005.7 |
| 20260506011511 | 10 | 184 | 0.0 | 0.0 | 0.03 | 0.69 | 0.56 | 98 | 1005.6 |
| 20260506011010 | 10 | 184 | 0.0 | 0.0 | 0.03 | 0.69 | 0.56 | 98 | 1005.6 |
| 20260506010510 | 10 | 184 | 0.0 | 0.0 | 0.03 | 0.69 | 0.56 | 98 | 1005.6 |
| 20260506010013 | 10 | 184 | 0.0 | 1.6 | 0.03 | 0.69 | 0.56 | 98 | 1005.7 |
| 20260506005510 | 10 | 184 | 0.0 | 1.6 | 0.03 | 0.69 | 0.56 | 97 | 1005.8 |
| 20260506005011 | 10 | 139 | 0.0 | 0.0 | 0.03 | 0.69 | 0.56 | 97 | 1005.8 |
| 20260506004512 | 10 | 139 | 0.0 | 0.0 | 0.03 | 0.69 | 0.56 | 97 | 1005.8 |
| 20260506004013 | 10 | 111 | 0.0 | 0.0 | 0.05 | 0.69 | 0.56 | 97 | 1005.8 |
| 20260506003512 | 10 | 107 | 0.0 | 0.0 | 0.05 | 0.69 | 0.56 | 97 | 1005.7 |
| 20260506003013 | 10 | 84 | 0.0 | 0.0 | 0.05 | 0.69 | 0.56 | 97 | 1005.5 |
| 20260506002507 | 10 | 84 | 0.0 | 0.0 | 0.05 | 0.69 | 0.56 | 97 | 1005.3 |
| 20260506002007 | 10 | 84 | 0.0 | 0.0 | 0.05 | 0.66 | 0.53 | 97 | 1005.3 |
| 20260506001508 | 10 | 84 | 0.0 | 4.8 | 0.05 | 0.66 | 0.53 | 97 | 1005.1 |
| 20260506001007 | 10 | 84 | 1.6 | 4.8 | 0.08 | 0.66 | 0.53 | 97 | 1005.2 |
| 20260506000507 | 10 | 84 | 1.6 | 3.2 | 0.13 | 0.66 | 0.53 | 97 | 1005.0 |
| 20260506000006 | 10 | 84 | 0.0 | 4.8 | 0.15 | 0.66 | 0.53 | 97 | 1004.9 |
| 20260505235508 | 10 | 84 | 1.6 | 4.8 | 0.15 | 0.66 | 0.53 | 96 | 1005.1 |
| 20260505235006 | 10 | 80 | 1.6 | 4.8 | 0.18 | 0.66 | 0.53 | 96 | 1005.1 |
| 20260505234505 | 10 | 88 | 0.0 | 4.8 | 0.20 | 0.66 | 0.53 | 96 | 1005.2 |
| 20260505234004 | 10 | 92 | 1.6 | 6.4 | 0.23 | 0.64 | 0.51 | 96 | 1005.3 |
| 20260505233506 | 10 | 111 | 1.6 | 6.4 | 0.23 | 0.64 | 0.51 | 96 | 1005.4 |
| 20260505233003 | 10 | 101 | 0.0 | 4.8 | 0.25 | 0.61 | 0.51 | 96 | 1005.6 |
| 20260505232503 | 10 | 101 | 0.0 | 17.7 | 0.30 | 0.61 | 0.51 | 96 | 1005.7 |
| 20260505232001 | 10 | 72 | 0.0 | 17.7 | 0.33 | 0.61 | 0.48 | 96 | 1005.8 |
| 20260505231501 | 10 | 301 | 0.0 | 8.0 | 0.41 | 0.61 | 0.48 | 96 | 1005.8 |
| 20260505231101 | 10 | 5 | 1.6 | 11.3 | 0.43 | 0.58 | 0.46 | 96 | 1006.0 |
| 20260505230659 | 10 | 223 | 1.6 | 11.3 | 0.43 | 0.56 | 0.43 | 96 | 1006.2 |
| 20260505230058 | 10 | 251 | 1.6 | 11.3 | 0.41 | 0.51 | 0.41 | 96 | 1006.5 |
| 20260505225603 | 10 | 274 | 1.6 | 6.4 | 0.38 | 0.51 | 0.38 | 96 | 1006.8 |
| 20260505225056 | 10 | 80 | 1.6 | 6.4 | 0.38 | 0.48 | 0.36 | 96 | 1006.8 |
| 20260505224559 | 11 | 70 | 0.0 | 9.7 | 0.41 | 0.46 | 0.33 | 96 | 1007.0 |
| 20260505224055 | 11 | 70 | 1.6 | 16.1 | 0.41 | 0.43 | 0.30 | 96 | 1007.1 |
| 20260505223554 | 11 | 237 | 0.0 | 16.1 | 0.41 | 0.41 | 0.28 | 96 | 1007.4 |
| 20260505223057 | 11 | 246 | 3.2 | 11.3 | 0.36 | 0.36 | 0.23 | 96 | 1007.5 |
| 20260505222557 | 11 | 252 | 4.8 | 11.3 | 0.33 | 0.33 | 0.20 | 95 | 1007.6 |
| 20260505222052 | 11 | 238 | 1.6 | 14.5 | 0.25 | 0.25 | 0.15 | 95 | 1007.7 |
| 20260505221551 | 11 | 291 | 3.2 | 14.5 | 0.20 | 0.20 | 0.08 | 95 | 1007.6 |
| 20260505221052 | 11 | 256 | 3.2 | 12.9 | 0.15 | 0.15 | 0.03 | 95 | 1007.4 |
| 20260505220548 | 11 | 207 | 1.6 | 14.5 | 0.13 | 0.13 | 0.00 | 95 | 1007.0 |
| 20260505220051 | 11 | 266 | 3.2 | 16.1 | 0.13 | 0.13 | 0.00 | 94 | 1006.9 |
| 20260505215647 | 11 | 294 | 8.0 | 16.1 | 0.13 | 0.13 | 0.13 | 93 | 1006.9 |
| 20260505215045 | 12 | 225 | 3.2 | 19.3 | 0.08 | 0.08 | 0.08 | 93 | 1007.0 |
| 20260505214554 | 12 | 240 | 6.4 | 19.3 | 0.05 | 0.05 | 0.05 | 92 | 1006.8 |
| 20260505214044 | 13 | 199 | 6.4 | 20.9 | 0.03 | 0.03 | 0.03 | 92 | 1006.8 |
| 20260505213543 | 13 | 232 | 3.2 | 20.9 | 0.00 | 0.00 | 0.00 | 90 | 1006.8 |
| 20260505213043 | 13 | 178 | 1.6 | 9.7 | 0.00 | 0.00 | 0.00 | 89 | 1006.3 |
| 20260505212541 | 13 | 23 | 1.6 | 16.1 | 0.00 | 0.00 | 0.00 | 89 | 1005.7 |
| 20260505212040 | 13 | 5 | 4.8 | 16.1 | 0.00 | 0.00 | 0.00 | 89 | 1005.4 |
| 20260505211540 | 13 | 77 | 3.2 | 12.9 | 0.00 | 0.00 | 0.00 | 88 | 1005.2 |
| 20260505211043 | 13 | 336 | 3.2 | 12.9 | 0.00 | 0.00 | 0.00 | 88 | 1005.0 |
| 20260505210539 | 13 | 63 | 3.2 | 9.7 | 0.00 | 0.00 | 0.00 | 88 | 1005.0 |
| 20260505210043 | 13 | 75 | 4.8 | 17.7 | 0.00 | 0.00 | 0.00 | 88 | 1005.0 |
| 20260505205540 | 13 | 73 | 3.2 | 16.1 | 0.00 | 0.00 | 0.00 | 88 | 1005.1 |
| 20260505205038 | 13 | 71 | 3.2 | 16.1 | 0.00 | 0.00 | 0.00 | 88 | 1004.9 |
| 20260505204538 | 13 | 49 | 4.8 | 17.7 | 0.00 | 0.00 | 0.00 | 87 | 1004.8 |
| 20260505204040 | 13 | 69 | 4.8 | 17.7 | 0.00 | 0.00 | 0.00 | 87 | 1004.9 |
| 20260505203540 | 13 | 76 | 4.8 | 17.7 | 0.00 | 0.00 | 0.00 | 88 | 1005.1 |
| 20260505203054 | 13 | 96 | 4.8 | 14.5 | 0.00 | 0.00 | 0.00 | 87 | 1005.1 |
| 20260505202538 | 13 | 54 | 4.8 | 16.1 | 0.00 | 0.00 | 0.00 | 87 | 1005.2 |
| 20260505202037 | 13 | 61 | 4.8 | 19.3 | 0.00 | 0.00 | 0.00 | 87 | 1005.0 |
| 20260505201543 | 13 | 55 | 4.8 | 17.7 | 0.00 | 0.00 | 0.00 | 88 | 1004.8 |
| 20260505201036 | 13 | 69 | 6.4 | 17.7 | 0.00 | 0.00 | 0.00 | 88 | 1004.9 |
| 20260505200536 | 13 | 26 | 6.4 | 16.1 | 0.00 | 0.00 | 0.00 | 88 | 1004.9 |
| 20260505200041 | 13 | 83 | 6.4 | 17.7 | 0.00 | 0.00 | 0.00 | 88 | 1005.1 |
| 20260505195535 | 13 | 82 | 6.4 | 25.7 | 0.00 | 0.00 | 0.00 | 88 | 1005.2 |
| 20260505195035 | 13 | 103 | 6.4 | 25.7 | 0.00 | 0.00 | 0.00 | 88 | 1005.3 |
| 20260505194537 | 13 | 80 | 6.4 | 14.5 | 0.00 | 0.00 | 0.00 | 88 | 1005.2 |
| 20260505194035 | 13 | 136 | 4.8 | 19.3 | 0.00 | 0.00 | 0.00 | 88 | 1005.5 |
| 20260505193536 | 13 | 99 | 4.8 | 19.3 | 0.00 | 0.00 | 0.00 | 88 | 1005.5 |
| 20260505193035 | 14 | 85 | 4.8 | 12.9 | 0.00 | 0.00 | 0.00 | 87 | 1005.5 |
| 20260505192534 | 14 | 86 | 4.8 | 16.1 | 0.00 | 0.00 | 0.00 | 87 | 1005.5 |
| 20260505192037 | 14 | 91 | 3.2 | 16.1 | 0.00 | 0.00 | 0.00 | 87 | 1005.4 |
| 20260505191534 | 14 | 109 | 4.8 | 12.9 | 0.00 | 0.00 | 0.00 | 87 | 1005.2 |
| 20260505191035 | 14 | 93 | 4.8 | 12.9 | 0.00 | 0.00 | 0.00 | 87 | 1005.2 |
| 20260505190533 | 14 | 78 | 4.8 | 12.9 | 0.00 | 0.00 | 0.00 | 86 | 1005.1 |
| 20260505190037 | 14 | 93 | 4.8 | 12.9 | 0.00 | 0.00 | 0.00 | 86 | 1005.2 |
| 20260505185532 | 14 | 78 | 4.8 | 16.1 | 0.00 | 0.00 | 0.00 | 86 | 1005.2 |
| 20260505185032 | 15 | 93 | 4.8 | 16.1 | 0.00 | 0.00 | 0.00 | 86 | 1005.2 |
| 20260505184536 | 15 | 186 | 4.8 | 14.5 | 0.00 | 0.00 | 0.00 | 86 | 1005.2 |
| 20260505184034 | 15 | 90 | 3.2 | 16.1 | 0.00 | 0.00 | 0.00 | 85 | 1005.2 |
| 20260505183530 | 15 | 89 | 4.8 | 16.1 | 0.00 | 0.00 | 0.00 | 85 | 1005.3 |
| 20260505183030 | 15 | 82 | 4.8 | 14.5 | 0.00 | 0.00 | 0.00 | 85 | 1005.4 |
| 20260505182529 | 15 | 39 | 4.8 | 14.5 | 0.00 | 0.00 | 0.00 | 85 | 1005.4 |
| 20260505182028 | 15 | 88 | 3.2 | 17.7 | 0.00 | 0.00 | 0.00 | 84 | 1005.4 |
| 20260505181535 | 15 | 91 | 3.2 | 17.7 | 0.00 | 0.00 | 0.00 | 84 | 1005.5 |
| 20260505181028 | 15 | 82 | 6.4 | 16.1 | 0.00 | 0.00 | 0.00 | 84 | 1005.5 |
| 20260505180527 | 15 | 68 | 3.2 | 19.3 | 0.00 | 0.00 | 0.00 | 84 | 1005.6 |
| 20260505180027 | 15 | 95 | 3.2 | 16.1 | 0.00 | 0.00 | 0.00 | 84 | 1005.6 |
| 20260505175528 | 15 | 67 | 3.2 | 11.3 | 0.00 | 0.00 | 0.00 | 83 | 1005.7 |
| 20260505175026 | 16 | 67 | 3.2 | 12.9 | 0.00 | 0.00 | 0.00 | 83 | 1005.8 |
| 20260505174535 | 16 | 101 | 3.2 | 12.9 | 0.00 | 0.00 | 0.00 | 83 | 1005.9 |
| 20260505174026 | 16 | 57 | 3.2 | 11.3 | 0.00 | 0.00 | 0.00 | 83 | 1005.9 |
| 20260505173525 | 16 | 85 | 3.2 | 12.9 | 0.00 | 0.00 | 0.00 | 83 | 1006.0 |
| 20260505173025 | 16 | 94 | 3.2 | 14.5 | 0.00 | 0.00 | 0.00 | 83 | 1006.0 |
| 20260505172525 | 16 | 97 | 1.6 | 12.9 | 0.00 | 0.00 | 0.00 | 83 | 1006.0 |
| 20260505172024 | 16 | 28 | 3.2 | 12.9 | 0.00 | 0.00 | 0.00 | 82 | 1006.0 |
| 20260505171524 | 16 | 93 | 4.8 | 12.9 | 0.00 | 0.00 | 0.00 | 82 | 1006.1 |
| 20260505171025 | 16 | 67 | 1.6 | 8.0 | 0.00 | 0.00 | 0.00 | 82 | 1006.1 |
| 20260505170523 | 16 | 63 | 3.2 | 9.7 | 0.00 | 0.00 | 0.00 | 81 | 1006.2 |
| 20260505170024 | 16 | 80 | 3.2 | 16.1 | 0.00 | 0.00 | 0.00 | 81 | 1006.1 |
| 20260505165523 | 16 | 121 | 4.8 | 16.1 | 0.00 | 0.00 | 0.00 | 80 | 1006.0 |
| 20260505165023 | 16 | 85 | 3.2 | 14.5 | 0.00 | 0.00 | 0.00 | 79 | 1006.1 |
| 20260505164523 | 17 | 340 | 3.2 | 12.9 | 0.00 | 0.00 | 0.00 | 78 | 1005.9 |
| 20260505164024 | 17 | 89 | 3.2 | 17.7 | 0.00 | 0.00 | 0.00 | 77 | 1006.0 |
| 20260505163522 | 17 | 253 | 3.2 | 17.7 | 0.00 | 0.00 | 0.00 | 77 | 1006.0 |
| 20260505163029 | 17 | 22 | 4.8 | 17.7 | 0.00 | 0.00 | 0.00 | 76 | 1006.0 |
| 20260505162521 | 18 | 84 | 3.2 | 16.1 | 0.00 | 0.00 | 0.00 | 76 | 1006.1 |
| 20260505162021 | 18 | 33 | 4.8 | 16.1 | 0.00 | 0.00 | 0.00 | 75 | 1006.1 |
| 20260505161520 | 18 | 127 | 1.6 | 16.1 | 0.00 | 0.00 | 0.00 | 76 | 1006.2 |
| 20260505161020 | 18 | 71 | 3.2 | 16.1 | 0.00 | 0.00 | 0.00 | 75 | 1006.4 |
| 20260505160520 | 18 | 39 | 6.4 | 14.5 | 0.00 | 0.00 | 0.00 | 75 | 1006.2 |
| 20260505153021 | 18 | 81 | 3.2 | 14.5 | 0.00 | 0.00 | 0.00 | 74 | 1006.5 |
| 20260505152516 | 18 | 106 | 4.8 | 14.5 | 0.00 | 0.00 | 0.00 | 73 | 1006.4 |
| 20260505152017 | 18 | 88 | 1.6 | 19.3 | 0.00 | 0.00 | 0.00 | 74 | 1006.5 |
| 20260505151519 | 19 | 92 | 4.8 | 19.3 | 0.00 | 0.00 | 0.00 | 73 | 1006.6 |
| 20260505151015 | 19 | 82 | 4.8 | 19.3 | 0.00 | 0.00 | 0.00 | 72 | 1006.7 |
| 20260505150518 | 19 | 93 | 4.8 | 19.3 | 0.00 | 0.00 | 0.00 | 72 | 1006.7 |
| 20260505140512 | 19 | 94 | 4.8 | 17.7 | 0.00 | 0.00 | 0.00 | 68 | 1007.0 |
| 20260505125008 | 19 | 118 | 1.6 | 11.3 | 0.00 | 0.00 | 0.00 | 67 | 1007.4 |
| 20260505124510 | 19 | 56 | 3.2 | 12.9 | 0.00 | 0.00 | 0.00 | 67 | 1007.4 |
| 20260505124008 | 19 | 28 | 4.8 | 12.9 | 0.00 | 0.00 | 0.00 | 66 | 1007.4 |
| 20260505123507 | 19 | 192 | 1.6 | 12.9 | 0.00 | 0.00 | 0.00 | 66 | 1007.4 |
| 20260505123006 | 20 | 93 | 3.2 | 12.9 | 0.00 | 0.00 | 0.00 | 65 | 1007.3 |
| 20260505122507 | 20 | 108 | 4.8 | 12.9 | 0.00 | 0.00 | 0.00 | 66 | 1007.3 |
| 20260505122006 | 20 | 76 | 3.2 | 14.5 | 0.00 | 0.00 | 0.00 | 65 | 1007.3 |
| 20260505121512 | 20 | 67 | 4.8 | 14.5 | 0.00 | 0.00 | 0.00 | 64 | 1007.3 |
| 20260505121006 | 20 | 101 | 0.0 | 9.7 | 0.00 | 0.00 | 0.00 | 64 | 1007.3 |
| 20260505120508 | 20 | 259 | 0.0 | 11.3 | 0.00 | 0.00 | 0.00 | 63 | 1007.3 |
| 20260505120006 | 21 | 46 | 0.0 | 11.3 | 0.00 | 0.00 | 0.00 | 63 | 1007.4 |
| 20260505115504 | 21 | 126 | 1.6 | 9.7 | 0.00 | 0.00 | 0.00 | 63 | 1007.5 |
| 20260505115003 | 21 | 166 | 3.2 | 14.5 | 0.00 | 0.00 | 0.00 | 65 | 1007.3 |
| 20260505114504 | 21 | 107 | 1.6 | 14.5 | 0.00 | 0.00 | 0.00 | 65 | 1007.4 |
| 20260505114004 | 20 | 105 | 1.6 | 9.7 | 0.00 | 0.00 | 0.00 | 64 | 1007.3 |
| 20260505113501 | 20 | 123 | 0.0 | 9.7 | 0.00 | 0.00 | 0.00 | 65 | 1007.4 |
| 20260505113005 | 20 | 259 | 1.6 | 9.7 | 0.00 | 0.00 | 0.00 | 67 | 1007.5 |
| 20260505112603 | 20 | 194 | 0.0 | 9.7 | 0.00 | 0.00 | 0.00 | 64 | 1007.7 |
| 20260505112059 | 20 | 88 | 1.6 | 9.7 | 0.00 | 0.00 | 0.00 | 65 | 1007.6 |
| 20260505111559 | 21 | 205 | 1.6 | 11.3 | 0.00 | 0.00 | 0.00 | 65 | 1007.6 |
| 20260505111059 | 21 | 215 | 0.0 | 11.3 | 0.00 | 0.00 | 0.00 | 64 | 1007.6 |
| 20260505110558 | 21 | 243 | 6.4 | 14.5 | 0.00 | 0.00 | 0.00 | 64 | 1007.7 |
| 20260505102051 | 20 | 78 | 1.6 | 9.7 | 0.00 | 0.00 | 0.00 | 67 | 1008.0 |
| 20260505101555 | 20 | 273 | 0.0 | 6.4 | 0.00 | 0.00 | 0.00 | 66 | 1008.0 |
| 20260505101048 | 19 | 83 | 0.0 | 6.4 | 0.00 | 0.00 | 0.00 | 66 | 1008.0 |
| 20260505100548 | 19 | 272 | 1.6 | 8.0 | 0.00 | 0.00 | 0.00 | 67 | 1008.0 |
| 20260505100047 | 19 | 67 | 1.6 | 8.0 | 0.00 | 0.00 | 0.00 | 68 | 1007.9 |
| 20260505095547 | 19 | 90 | 4.8 | 8.0 | 0.00 | 0.00 | 0.00 | 67 | 1008.1 |
| 20260505095046 | 18 | 76 | 0.0 | 4.8 | 0.00 | 0.00 | 0.00 | 68 | 1008.2 |
| 20260505094545 | 18 | 240 | 1.6 | 4.8 | 0.00 | 0.00 | 0.00 | 69 | 1008.2 |
| 20260505094045 | 18 | 244 | 1.6 | 11.3 | 0.00 | 0.00 | 0.00 | 71 | 1008.3 |
| 20260505093544 | 18 | 230 | 3.2 | 11.3 | 0.00 | 0.00 | 0.00 | 71 | 1008.4 |
| 20260505093045 | 18 | 242 | 3.2 | 8.0 | 0.00 | 0.00 | 0.00 | 70 | 1008.4 |
| 20260505092543 | 18 | 240 | 0.0 | 11.3 | 0.00 | 0.00 | 0.00 | 70 | 1008.4 |
| 20260505092044 | 18 | 309 | 4.8 | 11.3 | 0.00 | 0.00 | 0.00 | 69 | 1008.3 |
| 20260505091543 | 18 | 208 | 1.6 | 8.0 | 0.00 | 0.00 | 0.00 | 70 | 1008.4 |
| 20260505091043 | 18 | 289 | 1.6 | 12.9 | 0.00 | 0.00 | 0.00 | 73 | 1008.5 |
| 20260505090539 | 17 | 254 | 4.8 | 14.5 | 0.00 | 0.00 | 0.00 | 73 | 1008.4 |
| 20260505090054 | 17 | 226 | 4.8 | 14.5 | 0.00 | 0.00 | 0.00 | 75 | 1008.6 |
| 20260505085538 | 17 | 244 | 4.8 | 12.9 | 0.00 | 0.00 | 0.00 | 77 | 1008.5 |
| 20260505085037 | 17 | 161 | 1.6 | 11.3 | 0.00 | 0.00 | 0.00 | 75 | 1008.6 |
| 20260505084540 | 17 | 195 | 4.8 | 14.5 | 0.00 | 0.00 | 0.00 | 75 | 1008.7 |
| 20260505084036 | 17 | 265 | 6.4 | 14.5 | 0.00 | 0.00 | 0.00 | 75 | 1008.7 |
| 20260505083533 | 17 | 272 | 4.8 | 11.3 | 0.00 | 0.00 | 0.00 | 75 | 1008.6 |
| 20260505083036 | 17 | 222 | 3.2 | 8.0 | 0.00 | 0.00 | 0.00 | 76 | 1008.8 |
| 20260505082532 | 16 | 299 | 3.2 | 11.3 | 0.00 | 0.00 | 0.00 | 76 | 1008.7 |
| 20260505082031 | 16 | 270 | 1.6 | 11.3 | 0.00 | 0.00 | 0.00 | 77 | 1008.8 |
| 20260505081535 | 16 | 236 | 0.0 | 8.0 | 0.00 | 0.00 | 0.00 | 80 | 1008.7 |
| 20260505081034 | 16 | 189 | 3.2 | 8.0 | 0.00 | 0.00 | 0.00 | 77 | 1008.7 |
| 20260505080530 | 16 | 209 | 0.0 | 11.3 | 0.00 | 0.00 | 0.00 | 78 | 1008.8 |
| 20260505080030 | 16 | 237 | 4.8 | 11.3 | 0.00 | 0.00 | 0.00 | 75 | 1008.8 |
| 20260505075532 | 16 | 230 | 1.6 | 6.4 | 0.00 | 0.00 | 0.00 | 79 | 1008.8 |
| 20260505075028 | 16 | 155 | 1.6 | 8.0 | 0.00 | 0.00 | 0.00 | 76 | 1008.7 |
| 20260505074527 | 16 | 192 | 1.6 | 8.0 | 0.00 | 0.00 | 0.00 | 78 | 1008.7 |
| 20260505074027 | 16 | 189 | 3.2 | 8.0 | 0.00 | 0.00 | 0.00 | 77 | 1008.9 |
| 20260505073527 | 16 | 150 | 3.2 | 8.0 | 0.00 | 0.00 | 0.00 | 76 | 1008.9 |
| 20260505073035 | 16 | 171 | 1.6 | 6.4 | 0.00 | 0.00 | 0.00 | 77 | 1008.9 |
| 20260505072524 | 16 | 236 | 1.6 | 6.4 | 0.00 | 0.00 | 0.00 | 82 | 1009.0 |
| 20260505072024 | 15 | 173 | 0.0 | 6.4 | 0.00 | 0.00 | 0.00 | 81 | 1008.9 |
| 20260505071524 | 15 | 168 | 0.0 | 4.8 | 0.00 | 0.00 | 0.00 | 81 | 1009.0 |
| 20260505071025 | 15 | 168 | 1.6 | 4.8 | 0.00 | 0.00 | 0.00 | 83 | 1008.9 |
| 20260505070525 | 14 | 167 | 0.0 | 0.0 | 0.00 | 0.00 | 0.00 | 84 | 1008.9 |
| 20260505070022 | 13 | 167 | 0.0 | 0.0 | 0.00 | 0.00 | 0.00 | 84 | 1009.0 |
| 20260505065521 | 13 | 167 | 0.0 | 0.0 | 0.00 | 0.00 | 0.00 | 85 | 1009.2 |
| 20260505065021 | 13 | 167 | 0.0 | 0.0 | 0.00 | 0.00 | 0.00 | 85 | 1009.1 |
| 20260505064524 | 13 | 167 | 0.0 | 0.0 | 0.00 | 0.00 | 0.00 | 86 | 1009.2 |
| 20260505064020 | 13 | 167 | 0.0 | 0.0 | 0.00 | 0.00 | 0.00 | 85 | 1009.3 |
| 20260505063519 | 13 | 230 | 0.0 | 0.0 | 0.00 | 0.00 | 0.00 | 86 | 1009.2 |
| 20260505063018 | 13 | 230 | 0.0 | 1.6 | 0.00 | 0.00 | 0.00 | 86 | 1009.2 |
| 20260505062523 | 13 | 230 | 0.0 | 11.3 | 0.00 | 0.00 | 0.00 | 85 | 1009.1 |
| 20260505062016 | 13 | 230 | 3.2 | 11.3 | 0.00 | 0.00 | 0.00 | 84 | 1009.2 |
| 20260505061516 | 13 | 196 | 0.0 | 4.8 | 0.00 | 0.00 | 0.00 | 84 | 1009.2 |
| 20260505061018 | 13 | 196 | 0.0 | 4.8 | 0.00 | 0.00 | 0.00 | 84 | 1009.3 |
| 20260505060516 | 13 | 178 | 0.0 | 3.2 | 0.00 | 0.00 | 0.00 | 83 | 1009.3 |
| 20260505060025 | 13 | 178 | 0.0 | 3.2 | 0.00 | 0.00 | 0.00 | 83 | 1009.3 |